Location: Brno
(49.2000°N, 16.6330°E)
Time: 08:12:46
(UTC+02:00)

Cosmos 1206 Rocket - Visible Passes

Search period start: 24 April 2014 00:00
Search period end: 04 May 2014 00:00
Orbit: 279 x 294 km, 81.2° (Epoch: 23 April)

Date Brightness Start Highest point End Pass type
(mag) Time Alt. Az. Time Alt. Az. Time Alt. Az.
01 May 5.3 00:13:18 10° N 00:13:25 11° N 00:13:25 11° N visible
02 May 5.2 00:13:57 10° N 00:14:10 12° N 00:14:10 12° N visible
03 May 5.2 00:14:04 10° NNW 00:14:21 12° NNW 00:14:21 12° NNW visible
